Terminal Aerodrome Forecast
Issued by NWS

Home | Current Version | Previous Version | Graphics & Text | Print | Product List | Glossary On
Versions: 1 2 3 4 5 6 7 8 9 10 11 12 13 14 15 16
000
FTUS43 KICT 102300
TAFRSL
TAF
KRSL 102324Z 1100/1124 16016G22KT P6SM SKC
     FM110200 16012KT P6SM SKC
     FM111600 20017G25KT P6SM SKC=

USA.gov is the U.S. government's official web portal to all federal, state and local government web resources and services.